Location: Berneck
(48.3909°N, 8.3683°E)
Time: 16:22:32
(UTC+00:00)

Daily predictions for brighter satellites

Satellite Brightness Start Highest point End
(mag) Time Altitude Azimuth Time Altitude Azimuth Time Altitude Azimuth
Cosmos 407 Rocket 3.8 20:03:51 10° NNW 20:09:00 56° ENE 20:14:02 10° SE
APEX 4.1 20:04:14 10° SSW 20:10:10 68° ESE 20:15:09 10° NE
SL-14 R/B 3.3 20:07:02 10° S 20:10:53 89° W 20:14:49 10° N
S3M 4.1 20:05:19 10° S 20:11:27 66° E 20:17:34 10° NNE
Cosmos 1455 Rocket 3.7 20:08:47 10° N 20:12:56 41° ENE 20:17:03 10° SE
SL-16 R/B 4.1 20:08:57 10° WSW 20:14:09 36° NW 20:19:25 10° NNE
USA 245 3.9 20:09:08 10° SSE 20:14:13 62° ENE 20:18:21 10° N
Cosmos 1626 4.2 20:11:29 10° SW 20:14:44 30° WNW 20:18:00 10° N
MetOp-B 4.2 20:11:33 10° SSE 20:16:55 90° ENE 20:22:19 10° NNW
SPOT 5 3.3 20:13:25 10° SE 20:17:42 43° ENE 20:21:51 10° N
Meteor 2-5 Rocket 4.3 20:13:23 10° SSE 20:18:28 39° E 20:23:34 10° NNE
SPOT 1/Viking Rocket 4.0 20:16:23 10° S 20:21:28 62° WSW 20:26:36 10° NNW
Cosmos 1271 Rocket 4.3 20:19:30 10° NNE 20:22:44 23° ENE 20:25:56 10° ESE
Cosmos 1300 2.9 20:20:40 10° NNW 20:24:27 73° W 20:28:13 10° S
Cosmos 1025 Rocket 3.7 20:21:13 10° SSE 20:25:07 37° E 20:29:06 10° NNE
ERS-1 Rocket 3.3 20:24:55 10° SE 20:29:48 53° ENE 20:34:43 10° N
Cosmos 1140 Rocket 3.5 20:27:23 10° NNW 20:32:39 90° E 20:37:49 10° SSE
Cosmos 1953 3.7 20:31:33 10° NNW 20:35:11 35° W 20:38:47 10° SSW
Cosmos 1943 3.5 20:31:54 10° SW 20:37:34 73° WNW 20:43:15 10° NNE
Cosmos 1745 Rocket 4.3 20:33:10 10° NNW 20:39:15 67° W 20:45:19 10° S
CZ-2C R/B 4.3 20:36:55 10° NNE 20:41:19 41° E 20:45:37 10° SSE
Cosmos 1603 4.0 20:35:50 10° SSW 20:41:32 77° WNW 20:47:18 10° NNE
Lacrosse 5 2.8 20:37:36 10° NW 20:42:34 47° NNE 20:47:30 10° E
Cosmos 1975 Rocket 3.1 20:41:20 10° S 20:45:47 74° E 20:50:14 10° NNE
H-2A R/B 4.0 20:43:10 10° N 20:47:03 32° WNW 20:50:59 10° SW
Helios 1A Rocket 2.9 20:43:49 11° SSE 20:47:43 84° ENE 20:51:50 10° NNW
Ariane Rocket 4.1 20:44:19 10° SSW 20:49:07 41° W 20:53:58 10° NNW
CARTOSAT-1 4.3 20:45:32 10° S 20:49:43 49° W 20:53:56 10° NNW
Cosmos 1954 Rocket 4.4 20:44:29 10° NNW 20:49:44 56° ENE 20:54:15 13° SE
Resurs 01 Rocket 3.7 20:50:09 10° SSW 20:53:45 24° W 20:57:23 10° NW
Lacrosse 4 Rocket 3.1 20:53:53 10° WSW 20:57:44 36° NW 21:01:33 10° NNE
Tiangong 2.5 20:56:39 10° SW 20:59:09 21° S 21:00:12 18° SE
Cosmos 2228 4.5 20:58:05 10° NNE 21:01:34 24° ENE 21:04:23 13° ESE
Cosmos 1544 Rocket 3.5 20:59:52 10° N 21:04:12 72° E 21:07:38 16° SSE
FALCON 9 DEB 2.9 21:03:20 10° WSW 21:06:36 85° SSE 21:09:52 10° ENE
Terra 1.8 21:02:52 14° SSE 21:07:00 88° ENE 21:11:48 10° NNW
SL-8 R/B 3.7 21:03:48 10° W 21:08:37 86° S 21:13:28 10° E
USA 267 3.2 21:02:51 10° ENE 21:09:23 68° SE 21:15:53 10° SW
Cosmos 1980 Rocket 4.4 21:06:54 10° N 21:10:37 17° NE 21:14:18 10° ENE
Cosmos 1455 2.1 21:08:11 10° N 21:11:59 78° E 21:14:42 18° SSE
Meteor 1-24 Rocket 3.6 21:07:06 10° S 21:12:24 89° W 21:17:49 10° NNE
Cosmos 2369 Rocket 4.5 21:09:37 10° WNW 21:13:02 17° W 21:16:28 10° SW
Cosmos 2315 Rocket 4.2 21:07:13 10° SSW 21:13:35 77° W 21:19:56 10° N
Cosmos 1697 Rocket 4.2 21:10:54 10° NNW 21:15:41 27° NE 21:20:26 10° ESE
NOSS 2-1 (C) 4.2 21:12:55 10° NW 21:17:14 65° NE 21:22:11 15° SE
Cosmos 1371 Rocket 4.0 21:13:11 10° SSW 21:18:24 88° ESE 21:23:43 10° NNE
RESURS DK-1 4.2 21:16:24 10° N 21:19:45 23° NE 21:23:06 10° E
Cosmos 1452 Rocket 4.5 21:17:03 17° SSE 21:20:04 30° E 21:24:37 10° NE
Spot 2 Rocket 4.2 21:15:27 11° S 21:20:16 51° W 21:25:15 10° NNW
ARIANE 5 R/B 2.7 21:23:37 18° S 21:26:59 78° WSW 21:31:29 10° NNW
NOSS 2-1 (D) 4.0 21:23:13 10° NW 21:27:37 76° NE 21:32:17 17° SE
Lacrosse 5 rocket 1.2 21:25:18 10° NW 21:29:11 82° SW 21:31:47 21° SE
ASTEX 1 4.4 21:24:48 10° NNE 21:29:20 33° E 21:32:06 19° SE
Cosmos 2084 3.4 21:26:52 11° SSW 21:30:22 48° SE 21:34:07 10° NE
Cosmos 2074 Rocket 4.0 21:31:03 10° N 21:37:23 83° E 21:42:02 19° SSE
ATLAS 2AS CENTAUR R/B 2.7 21:32:49 10° NW 21:40:00 81° SW 21:44:51 20° SSE
Cosmos 1624 Rocket 4.3 21:35:01 10° SSW 21:40:14 68° WNW 21:45:28 10° NNE
Cosmos 1656 3.7 21:37:44 10° NNW 21:43:12 72° ENE 21:46:54 21° SE
GP-B 4.2 21:39:37 10° NNE 21:43:34 30° E 21:45:39 21° SE
USA 234 3.2 21:38:51 16° SE 21:44:17 79° SW 21:50:54 10° NW
Cosmos 1833 Rocket 3.6 21:44:37 21° SE 21:47:06 30° ESE 21:51:54 10° NE
Cosmos 2154 Rocket 4.0 21:50:27 10° N 21:56:43 83° E 22:00:52 23° SSE
Cosmos 1271 Rocket 4.1 21:55:06 10° NNW 21:58:42 33° W 22:01:16 16° SSW
Nadezhda 1 Rocket 4.0 21:54:38 21° S 21:58:51 70° E 22:04:55 10° NNE
Cosmos 2056 Rocket 4.5 21:54:51 10° SW 22:00:02 49° WNW 22:05:20 10° NNE
Cosmos 2082 Rocket 3.9 21:59:42 15° ESE 22:01:23 17° E 22:04:55 10° ENE
Cosmos 1741 Rocket 4.0 21:58:35 10° NNW 22:03:55 81° ENE 22:07:02 26° SSE
Cosmos 1610 Rocket 4.5 21:58:26 10° N 22:04:39 85° E 22:08:40 24° S
Cosmos 2344 4.4 22:00:11 10° NW 22:08:48 71° NE 22:20:43 10° SE
Cosmos 1536 Rocket 4.4 22:13:47 15° SW 22:17:08 44° WNW 22:21:19 10° N
Cosmos 1607 4.4 22:11:51 10° SW 22:18:01 61° NW 22:24:10 10° NE
Cosmos 968 Rocket 4.3 22:20:13 10° NNW 22:25:10 43° ENE 22:28:30 19° ESE
Cosmos 1606 Rocket 3.5 22:21:12 10° NNW 22:25:31 76° W 22:27:26 32° S
Lacrosse 5 2.1 22:20:41 10° WNW 22:25:40 55° SW 22:27:56 30° SSE
H-2A R/B 4.1 22:21:57 10° NNE 22:25:57 41° E 22:27:16 32° SE
COSMOS 2406 3.9 22:25:00 26° SSE 22:27:20 37° ESE 22:32:36 10° NE
Cosmos 724 4.4 22:25:31 10° SW 22:31:19 75° NW 22:37:09 10° NE
Meteor 1-11 4.4 22:30:33 28° SSE 22:33:23 56° E 22:38:52 10° NNE
SL-8 Rocket 4.1 22:29:40 10° N 22:35:56 66° ENE 22:39:30 27° SSE
TSX-5 4.4 22:33:04 20° SW 22:36:10 78° WNW 22:41:48 10° NNE
Cosmos 1850 Rocket 4.4 22:31:29 10° NNW 22:36:34 54° WSW 22:39:02 28° S
Cosmos 2369 4.2 22:31:46 10° NNW 22:37:26 57° ENE 22:41:14 21° SE
SJ 16-02 4.2 22:37:37 10° NE 22:38:28 10° NE 22:39:20 10° ENE
Cosmos 1328 3.9 22:37:12 33° SSW 22:38:56 73° W 22:42:59 10° N
Cosmos 2228 4.1 22:35:18 10° NNW 22:39:10 35° W 22:41:10 22° SW
Cosmos 2218 Rocket 4.3 22:33:10 10° N 22:39:32 61° ENE 22:43:17 25° SSE
Meteor 1-21 Rocket 4.5 22:35:49 20° SSW 22:39:40 64° WNW 22:45:17 10° N
Cosmos 2341 Rocket 4.0 22:35:05 10° N 22:41:29 85° E 22:45:04 28° S
SL-16 R/B 4.3 22:38:04 10° N 22:42:23 22° NE 22:46:40 10° E
Cosmos 1408 2.5 22:43:33 48° SSE 22:44:14 62° E 22:47:39 10° NNE
Terra 4.2 22:43:27 10° WSW 22:45:26 12° W 22:47:25 10° WNW
Cosmos 1825 3.2 22:46:54 29° ESE 22:47:40 31° E 22:51:02 10° NNE
ALOS 2 2.5 22:46:37 36° SSE 22:48:24 87° ENE 22:52:49 10° NNW
Cosmos 2366 rocket 4.1 22:42:54 10° N 22:49:12 70° E 22:52:47 27° SSE
Cosmos 1900 4.5 22:45:31 10° NW 22:50:43 79° NE 22:53:35 27° SE
SL-8 R/B 3.6 22:46:21 10° W 22:51:12 83° SSW 22:56:02 10° ESE
Cosmos 1726 Rocket 4.0 22:47:42 10° NNW 22:51:55 52° W 22:53:36 32° SSW
USA 267 4.0 22:45:58 10° NE 22:52:19 56° NNW 22:58:41 10° W
Cosmos 1980 Rocket 2.4 22:50:03 10° NNW 22:55:45 68° ENE 22:59:14 24° SE
RESURS DK-1 2.8 22:54:00 10° NW 22:57:58 47° WSW 22:59:03 37° SSW
Cosmos 1697 Rocket 2.8 22:54:32 10° NNW 23:00:06 63° WSW 23:02:42 31° S
Cosmos 1331 Rocket 4.2 22:57:21 23° SSW 23:00:44 72° WNW 23:06:04 10° NNE
Cosmos 1452 Rocket 4.5 22:57:20 12° SW 23:02:00 43° WNW 23:07:03 10° NNE
Cosmos 1892 2.6 23:06:34 46° SSW 23:07:36 81° W 23:11:23 10° N
Lacrosse 5 rocket 3.4 23:05:29 10° W 23:07:17 14° WSW 23:07:17 14° WSW
ERS-2 2.2 23:05:11 10° NNE 23:08:45 59° ESE 23:09:26 48° SSE
ADEOS Rocket 3.4 23:05:35 28° S 23:09:40 77° WSW 23:17:15 10° NNW
USA 276 1.8 23:10:14 74° E 23:10:14 74° E 23:12:56 10° ENE
Cosmos 2084 Rocket 3.7 23:07:03 10° NW 23:10:53 57° NE 23:13:11 23° ESE
In-Cosmos 22 Rocket 4.2 23:08:21 31° S 23:11:06 76° E 23:16:39 10° NNE
Cosmos 2058 Rocket 3.5 23:10:53 10° NNW 23:15:09 51° W 23:16:43 34° SSW
Cosmos 1602 Rocket 4.2 23:15:24 33° SE 23:16:47 44° E 23:20:54 10° NNE
Cosmos 1959 Rocket 4.4 23:12:07 10° NNW 23:18:15 77° W 23:21:25 30° S
Cosmos 2181 Rocket 3.9 23:15:18 29° SSW 23:18:40 84° W 23:24:53 10° N
Cosmos 1302 Rocket 3.9 23:21:10 31° SSW 23:23:44 89° WNW 23:28:58 10° NNE
Cosmos 2278 3.9 23:18:02 10° NNW 23:23:46 68° ENE 23:27:31 22° SE
Cosmos 192 4.3 23:21:56 31° SSW 23:24:19 79° WNW 23:29:16 10° NNE
Cosmos 2322 Rocket 3.9 23:19:48 10° NNW 23:24:42 29° NE 23:29:35 10° ESE
Geosat FO 4.5 23:25:31 48° SE 23:26:23 81° ENE 23:29:57 10° NNW
USA 234 4.3 23:26:12 23° SSW 23:27:58 26° SW 23:33:17 10° WNW
ATLAS 2AS CENTAUR R/B 4.2 23:25:21 10° WNW 23:29:45 18° WSW 23:32:16 15° SW
Cosmos 1833 Rocket 3.4 23:26:16 15° SW 23:30:46 51° NW 23:36:16 10° NNE
CZ-2D R/B 4.4 23:33:45 10° ENE 23:35:33 12° E 23:37:21 10° ESE
Geosat 4.2 23:35:56 21° SE 23:39:15 68° ENE 23:44:16 10° NNW
BREEZE-M DEB (TANK) 4.1 23:36:57 10° WNW 23:40:40 88° SSW 23:57:04 10° ESE
Okean 1-7 Rocket 3.8 23:39:49 34° SW 23:41:34 60° WNW 23:46:00 10° N
Cosmos 1626 Rocket 3.6 23:42:03 37° SSW 23:43:39 66° W 23:47:59 10° N
Cosmos 2082 Rocket 2.2 23:41:32 28° SSW 23:44:43 85° WNW 23:50:28 10° NNE
Cosmos 1821 Rocket 4.0 23:41:09 10° N 23:47:30 89° W 23:50:56 29° S
Cosmos 1869 3.9 23:46:22 10° NNW 23:50:00 41° W 23:50:55 34° SW
ATLAS 5 CENTAUR R/B 2.4 23:51:04 27° SE 23:51:22 27° ESE 23:54:48 10° ENE
Cosmos 1238 4.4 23:52:31 52° SE 23:52:50 56° E 23:55:49 10° NNE
Cosmos 1825 Rocket 4.1 23:53:55 32° SSE 23:55:31 48° E 23:59:41 10° NNE
